Morris, MN

10:34 PM CDT on May 27, 2018 (GMT -0500)
Morris Municipal

Weather History for KMOX - February, 2013

Change the Weather History Date:

Thursday, February 28, 2013

  Actual Average Record
Temperature  
Mean Temperature 20 °F -  
Max Temperature 26 °F 25 °F 41 °F (2016)
Min Temperature 15 °F 10 °F -16 °F (2009)
Degree Days  
Heating Degree Days 44    
Moisture  
Dew Point 18 °F    
Average Humidity 87    
Maximum Humidity 93    
Minimum Humidity 80    
Precipitation  
Precipitation 0.00 in - - ()
Sea Level Pressure  
Sea Level Pressure 30.19 in    
Wind  
Wind Speed 8 mph (NNW)    
Max Wind Speed 12 mph    
Max Gust Speed -    
Visibility 10 miles    
Events      
Averages and records for this station are not official NWS values.
T = Trace of Precipitation, MM = Missing Value Source: NWS Daily Summary

Daily Weather History Graph

Daily Weather History Graph

Search for Another Location

Airport or City:

Astronomy

Feb. 28, 2013 Rise Set
Actual Time 7:03 AM CST 6:09 PM CST
Civil Twilight 6:33 AM CST 6:39 PM CST
Nautical Twilight 5:59 AM CST 7:13 PM CST
Astronomical Twilight 5:25 AM CST 7:48 PM CST
Moon 9:51 PM CST 8:02 AM CST
Length of Visible Light 12h 05m
Length of Day
11h 06m
Waning Gibbous, 90% of the Moon is Illuminated
Feb 28
Waning Gibbous
Mar 4
Last Quarter
Mar 11
New
Mar 19
First Quarter
Mar 27
Full

Hourly Weather History & Observations

Time (CST) Temp. Windchill Dew Point Humidity Pressure Visibility Wind Dir Wind Speed Gust Speed Precip Events Conditions
12:11 AM 17.6 °F 6.4 °F 15.8 °F 93% 30.11 in 10.0 mi NNW 9.2 mph - N/A   Clear
12:51 AM 15.8 °F 4.2 °F 14.0 °F 93% 30.11 in 10.0 mi NNW 9.2 mph - N/A   Clear
1:11 AM 15.8 °F 5.1 °F 14.0 °F 93% 30.11 in 10.0 mi NNW 8.1 mph - N/A   Clear
1:31 AM 15.8 °F 5.1 °F 14.0 °F 93% 30.12 in 10.0 mi NNW 8.1 mph - N/A   Mostly Cloudy
1:51 AM 17.6 °F 7.3 °F 15.8 °F 93% 30.13 in 10.0 mi NNW 8.1 mph - N/A   Overcast
2:11 AM 17.6 °F 7.3 °F 15.8 °F 93% 30.13 in 10.0 mi NNW 8.1 mph - N/A   Overcast
2:31 AM 17.6 °F 8.2 °F 15.8 °F 93% 30.13 in 10.0 mi NNW 6.9 mph - N/A   Overcast
2:51 AM 17.6 °F 9.3 °F 15.8 °F 93% 30.13 in 10.0 mi NNW 5.8 mph - N/A   Overcast
3:11 AM 17.6 °F 9.3 °F 15.8 °F 93% 30.13 in 10.0 mi NNW 5.8 mph - N/A   Overcast
3:31 AM 17.6 °F 10.7 °F 15.8 °F 93% 30.13 in 10.0 mi NNW 4.6 mph - N/A   Overcast
3:51 AM 19.4 °F 14.3 °F 15.8 °F 86% 30.13 in 10.0 mi NNW 3.5 mph - N/A   Overcast
4:11 AM 19.4 °F 12.8 °F 17.6 °F 93% 30.14 in 10.0 mi NNW 4.6 mph - N/A   Overcast
4:31 AM 19.4 °F 12.8 °F 17.6 °F 93% 30.14 in 10.0 mi NNW 4.6 mph - N/A   Overcast
4:51 AM 19.4 °F 12.8 °F 17.6 °F 93% 30.15 in 10.0 mi NNW 4.6 mph - N/A   Overcast
5:11 AM 19.4 °F 11.5 °F 17.6 °F 93% 30.15 in 10.0 mi NNW 5.8 mph - N/A   Overcast
5:31 AM 19.4 °F 12.8 °F 17.6 °F 93% 30.16 in 10.0 mi NW 4.6 mph - N/A   Overcast
5:51 AM 19.4 °F 11.5 °F 17.6 °F 93% 30.16 in 10.0 mi NNW 5.8 mph - N/A   Overcast
6:11 AM 19.4 °F 10.4 °F 17.6 °F 93% 30.16 in 10.0 mi NNW 6.9 mph - N/A   Overcast
6:31 AM 19.4 °F 10.4 °F 17.6 °F 93% 30.16 in 10.0 mi NNW 6.9 mph - N/A   Overcast
6:51 AM 21.2 °F 13.6 °F 17.6 °F 86% 30.17 in 10.0 mi NNW 5.8 mph - N/A   Overcast
7:11 AM 21.2 °F 12.6 °F 17.6 °F 86% 30.17 in 10.0 mi NNW 6.9 mph - N/A   Overcast
7:31 AM 21.2 °F 14.9 °F 19.4 °F 93% 30.18 in 10.0 mi NNW 4.6 mph - N/A   Overcast
7:51 AM 21.2 °F 12.6 °F 19.4 °F 93% 30.18 in 10.0 mi NNW 6.9 mph - N/A   Overcast
8:11 AM 21.2 °F 12.6 °F 19.4 °F 93% 30.18 in 10.0 mi NNW 6.9 mph - N/A   Overcast
8:31 AM 21.2 °F 13.6 °F 19.4 °F 93% 30.19 in 10.0 mi NNW 5.8 mph - N/A   Overcast
8:51 AM 21.2 °F 14.9 °F 19.4 °F 93% 30.18 in 10.0 mi NNW 4.6 mph - N/A   Overcast
9:11 AM 23.0 °F 17.0 °F 19.4 °F 86% 30.19 in 10.0 mi NNW 4.6 mph - N/A   Overcast
9:31 AM 23.0 °F 17.0 °F 19.4 °F 86% 30.19 in 10.0 mi NNW 4.6 mph - N/A   Overcast
9:51 AM 24.8 °F 16.9 °F 21.2 °F 86% 30.19 in 10.0 mi NW 6.9 mph - N/A   Overcast
10:11 AM 24.8 °F 17.9 °F 21.2 °F 86% 30.19 in 10.0 mi NNW 5.8 mph - N/A   Overcast
10:31 AM 24.8 °F 17.9 °F 21.2 °F 86% 30.20 in 10.0 mi NNW 5.8 mph - N/A   Overcast
10:51 AM 24.8 °F 16.1 °F 21.2 °F 86% 30.20 in 10.0 mi NW 8.1 mph - N/A   Overcast
11:11 AM 24.8 °F 16.9 °F 21.2 °F 86% 30.20 in 10.0 mi NNW 6.9 mph - N/A   Overcast
11:31 AM 24.8 °F 16.1 °F 21.2 °F 86% 30.20 in 10.0 mi NNW 8.1 mph - N/A   Overcast
11:51 AM 24.8 °F 16.1 °F 21.2 °F 86% 30.20 in 10.0 mi NNW 8.1 mph - N/A   Overcast
12:31 PM 26.6 °F 18.2 °F 21.2 °F 80% 30.20 in 10.0 mi NNW 8.1 mph - N/A   Overcast
12:51 PM 26.6 °F 16.8 °F 21.2 °F 80% 30.20 in 10.0 mi NNW 10.4 mph - N/A   Overcast
1:11 PM 26.6 °F 16.8 °F 21.2 °F 80% 30.19 in 10.0 mi NNW 10.4 mph - N/A   Overcast
1:31 PM 26.6 °F 16.2 °F 21.2 °F 80% 30.19 in 10.0 mi NNW 11.5 mph - N/A   Overcast
1:51 PM 26.6 °F 17.5 °F 21.2 °F 80% 30.19 in 10.0 mi NW 9.2 mph - N/A   Overcast
2:11 PM 26.6 °F 16.8 °F 21.2 °F 80% 30.19 in 10.0 mi NNW 10.4 mph - N/A   Overcast
2:31 PM 26.6 °F 16.2 °F 21.2 °F 80% 30.19 in 10.0 mi NW 11.5 mph - N/A   Overcast
2:51 PM 26.6 °F 16.8 °F 21.2 °F 80% 30.19 in 10.0 mi NNW 10.4 mph - N/A   Overcast
3:11 PM 26.6 °F 16.2 °F 21.2 °F 80% 30.19 in 10.0 mi NNW 11.5 mph - N/A   Unknown
3:31 PM 26.6 °F 16.2 °F 21.2 °F 80% 30.19 in 10.0 mi NNW 11.5 mph - N/A   Overcast
3:51 PM 24.8 °F 14.6 °F 21.2 °F 86% 30.19 in 10.0 mi NNW 10.4 mph - N/A   Overcast
4:11 PM 24.8 °F 14.0 °F 21.2 °F 86% 30.20 in 10.0 mi NNW 11.5 mph - N/A   Overcast
4:31 PM 24.8 °F 14.6 °F 21.2 °F 86% 30.20 in 10.0 mi NNW 10.4 mph - N/A   Overcast
4:51 PM 24.8 °F 14.0 °F 19.4 °F 80% 30.20 in 10.0 mi NNW 11.5 mph - N/A   Overcast
5:11 PM 24.8 °F 15.3 °F 19.4 °F 80% 30.20 in 10.0 mi NNW 9.2 mph - N/A   Overcast
5:31 PM 24.8 °F 14.0 °F 19.4 °F 80% 30.20 in 10.0 mi NNW 11.5 mph - N/A   Overcast
5:51 PM 24.8 °F 15.3 °F 19.4 °F 80% 30.21 in 10.0 mi NNW 9.2 mph - N/A   Overcast
6:11 PM 24.8 °F 15.3 °F 19.4 °F 80% 30.22 in 10.0 mi NNW 9.2 mph - N/A   Overcast
6:31 PM 23.0 °F 13.1 °F 19.4 °F 86% 30.22 in 10.0 mi NNW 9.2 mph - N/A   Overcast
6:51 PM 24.8 °F 16.1 °F 19.4 °F 80% 30.23 in 10.0 mi North 8.1 mph - N/A   Overcast
7:11 PM 24.8 °F 16.1 °F 19.4 °F 80% 30.23 in 10.0 mi North 8.1 mph - N/A   Overcast
7:31 PM 23.0 °F 14.7 °F 19.4 °F 86% 30.23 in 10.0 mi North 6.9 mph - N/A   Overcast
7:51 PM 23.0 °F 14.7 °F 19.4 °F 86% 30.23 in 10.0 mi North 6.9 mph - N/A   Overcast
8:11 PM 23.0 °F 14.7 °F 19.4 °F 86% 30.24 in 10.0 mi NNW 6.9 mph - N/A   Overcast
8:31 PM 23.0 °F 13.1 °F 19.4 °F 86% 30.24 in 10.0 mi NW 9.2 mph - N/A   Overcast
8:51 PM 21.2 °F 11.7 °F 19.4 °F 93% 30.23 in 10.0 mi NNW 8.1 mph - N/A   Overcast
9:11 PM 21.2 °F 10.9 °F 17.6 °F 86% 30.24 in 10.0 mi NNW 9.2 mph - N/A   Overcast
9:31 PM 21.2 °F 11.7 °F 17.6 °F 86% 30.24 in 10.0 mi NNW 8.1 mph - N/A   Scattered Clouds
9:51 PM 19.4 °F 9.5 °F 17.6 °F 93% 30.25 in 10.0 mi NNW 8.1 mph - N/A   Clear
10:11 PM 19.4 °F 10.4 °F 15.8 °F 86% 30.24 in 10.0 mi NNW 6.9 mph - N/A   Clear
10:31 PM 17.6 °F 8.2 °F 15.8 °F 93% 30.25 in 10.0 mi NNW 6.9 mph - N/A   Clear
10:51 PM 17.6 °F 9.3 °F 14.0 °F 86% 30.24 in 10.0 mi NNW 5.8 mph - N/A   Clear
11:11 PM 15.8 °F 8.6 °F 12.2 °F 86% 30.24 in 10.0 mi NNW 4.6 mph - N/A   Clear
11:31 PM 15.8 °F 10.2 °F 12.2 °F 86% 30.24 in 10.0 mi NNW 3.5 mph - N/A   Clear
11:51 PM 15.8 °F 7.2 °F 12.2 °F 86% 30.24 in 10.0 mi NW 5.8 mph - N/A   Scattered Clouds